Temperature
13 14 14 15 19 20 21 21 20 19 20 19 18 20 21 21 21 20 14 15 15 15 15 15 16 16 16 16 16 16 16 16 16 16 16 16 16 16 16 16 16 16 16 16 16 16 16 16 16
13 13 14 16 20 21 21 20 19 19 18 17 17 18 19 18 16 15 14 14 14 15 15 15 15 15 16 16 16 16 16 16 16 16 16 16 16 16 16 16 16 16 16 16 16 16 16 16 16
13 13 15 18 19 21 21 19 19 18 16 17 17 17 18 16 15 14 14 14 14 14 14 15 15 15 16 16 16 16 16 16 16 16 16 16 16 16 16 16 16 16 16 16 16 16 16 16 16
13 14 15 18 18 19 19 19 18 17 16 16 17 17 15 13 13 13 14 14 14 14 14 15 15 15 15 16 16 16 16 16 16 16 16 15 16 16 16 16 16 15 15 15 15 16 16 16 16
12 15 17 17 18 17 17 17 17 18 18 16 17 17 15 13 13 13 14 14 14 14 14 14 15 15 15 15 15 16 16 16 16 16 16 15 15 15 15 15 16 15 15 15 15 15 15 15 16
13 16 17 17 17 16 16 15 16 17 17 16 16 16 14 12 13 13 13 14 14 14 14 14 14 14 15 15 15 15 15 15 15 16 15 15 15 15 15 15 15 15 15 15 15 15 15 15 15
14 16 17 18 17 16 16 15 16 17 17 16 15 16 14 12 12 13 13 13 14 14 14 14 14 14 14 14 15 15 15 15 15 15 15 15 15 15 15 15 15 15 15 15 15 15 15 15 15
13 15 15 16 16 16 15 14 14 16 16 13 14 16 14 12 12 13 13 13 13 13 14 14 14 14 14 14 14 14 14 14 15 15 15 15 15 15 15 15 15 15 15 15 15 15 15 15 15
12 15 15 16 16 15 14 14 13 12 13 13 12 13 12 12 12 12 13 13 13 13 13 13 14 14 14 14 14 14 14 14 14 14 14 14 15 15 15 15 15 15 15 15 15 15 15 15 15
13 14 14 14 15 14 13 14 13 13 14 13 12 12 11 12 12 12 12 12 13 13 13 13 13 13 13 13 14 14 14 14 14 14 14 14 14 14 14 15 15 15 15 15 15 15 15 15 14
12 13 13 12 12 13 13 13 12 14 14 13 13 12 11 11 12 12 12 12 12 12 13 13 13 13 13 13 13 13 13 13 14 14 14 14 14 14 14 14 14 14 14 14 14 14 14 14 14
12 11 11 11 10 11 12 12 12 13 13 12 11 11 11 11 11 11 11 11 12 12 12 12 12 12 12 12 12 12 13 13 13 13 13 13 13 13 13 13 13 14 14 14 14 14 14 14 14
11 11 10 10 10 11 11 12 11 11 11 10 10 10 10 10 10 11 11 11 11 11 12 12 12 12 12 12 12 12 12 12 12 12 13 13 12 12 13 13 13 13 13 13 13 13 13 13 13
11 10 10 10 10 10 11 11 11 11 10 10 10 10 10 10 10 10 10 11 11 11 11 11 11 11 11 11 11 11 11 11 12 12 12 12 12 12 12 12 12 12 12 12 13 13 13 13 13
10 11 11 11 11 10 11 12 11 10 10 10 10 10 9 9 9 10 10 10 10 10 11 11 11 11 11 11 11 11 11 11 11 11 11 11 11 12 12 12 12 12 12 12 12 12 12 13 13
11 12 12 11 11 10 11 13 12 10 10 10 10 10 9 9 9 9 10 10 10 10 10 10 10 10 10 10 10 10 10 10 10 10 11 11 11 11 11 11 11 11 11 11 11 11 12 12 12
11 12 12 11 10 11 11 12 12 10 10 10 10 10 9 9 9 9 9 9 10 10 10 10 10 10 10 10 10 10 10 10 10 10 10 10 10 10 10 10 11 11 10 11 11 11 11 11 11
11 12 11 11 10 10 11 12 12 10 10 10 10 10 9 9 9 9 9 9 9 9 9 9 9 9 9 9 9 9 9 9 9 9 9 10 10 10 10 10 10 10 10 10 10 10 10 10 10
11 11 11 11 10 10 11 11 12 11 10 10 10 10 9 9 8 8 9 9 9 9 9 9 9 9 9 9 9 9 9 9 9 9 9 9 9 9 9 9 9 9 9 9 9 9 9 9 10
10 11 11 10 9 10 10 11 11 11 10 10 10 10 9 8 8 8 8 8 8 8 8 8 8 8 8 8 8 8 8 8 8 8 8 8 8 8 8 8 8 8 9 9 9 9 9 9 9
10 10 10 10 9 9 10 11 12 11 9 9 8 8 8 8 8 8 8 8 8 8 8 8 8 8 8 8 8 8 8 8 8 8 8 8 8 8 8 8 8 8 8 8 8 8 8 8 8
9 9 9 9 10 10 10 11 12 11 10 10 9 8 8 8 7 7 7 8 8 8 8 8 8 8 7 7 7 7 7 7 7 7 7 7 7 7 7 7 7 7 7 7 7 7 7 7 7
9 8 9 9 9 9 9 10 12 11 11 11 10 9 8 7 7 7 7 7 7 7 7 7 7 7 7 7 7 6 6 6 6 6 6 7 7 7 7 7 7 7 7 7 7 7 7 7 7
8 8 8 9 9 9 9 10 12 12 11 11 10 9 8 7 7 7 7 7 7 7 7 7 7 7 7 7 6 6 6 6 6 6 6 6 6 6 6 6 6 6 6 6 6 6 6 6 6
8 9 9 10 10 11 9 9 11 12 11 10 10 9 7 7 6 6 6 7 7 6 6 6 6 6 6 6 6 6 6 5 5 5 5 5 6 6 6 6 6 6 6 6 6 6 6 6 6
8 9 9 10 11 12 9 9 12 11 9 8 8 8 7 6 6 6 6 6 6 6 6 6 6 6 6 6 6 5 5 5 5 5 5 5 5 5 5 5 5 5 5 5 5 5 5 5 5
8 8 8 9 8 9 11 11 11 10 9 9 8 7 7 6 6 6 6 6 6 6 6 6 6 6 6 5 5 5 5 5 4 5 5 5 5 5 5 5 5 5 5 5 5 5 5 4 5
8 8 8 8 9 11 11 11 12 11 10 10 9 8 7 6 6 6 6 6 6 6 5 5 5 5 5 5 5 5 5 4 4 4 4 4 5 5 5 5 5 4 4 4 4 4 4 4 4
7 7 8 8 8 10 11 12 11 10 10 9 9 8 7 6 6 6 6 6 6 5 5 5 5 5 5 5 4 4 4 4 4 4 4 4 4 4 4 4 4 4 4 4 4 4 4 4 4
7 8 8 8 8 8 9 11 11 10 9 8 8 7 6 6 6 6 6 5 5 5 5 5 5 5 5 4 4 4 4 4 4 4 4 4 4 4 4 4 4 4 4 3 3 3 3 3 3
Wind_Speed
1 2 3 4 6 6 11 7 5 7 5 3 3 3 4 3 2 4 5 4 4 4 5 6 6 7 7 6 6 6 6 6 6 6 5 5 5 6 7 6 6 6 6 7 7 7 7 7 8
1 3 4 5 7 10 9 9 8 6 5 5 4 3 4 3 4 6 5 4 4 5 5 6 7 7 6 6 6 5 5 4 4 5 4 4 4 4 5 6 6 6 5 6 6 6 7 7 8
3 2 4 5 8 11 8 7 8 6 5 4 4 2 2 4 4 4 4 3 4 5 5 7 7 6 6 5 5 4 4 3 3 3 3 3 3 3 4 4 5 5 5 6 6 6 7 7 8
4 4 3 6 11 8 3 5 6 8 5 3 5 5 4 4 2 3 4 4 5 6 5 7 6 6 5 5 4 3 3 2 2 2 2 2 2 2 2 3 4 5 6 6 6 6 7 8 8
3 5 7 8 10 6 3 3 6 8 7 5 6 5 5 4 4 4 5 5 6 6 6 6 7 6 5 4 4 3 2 1 0 1 1 2 2 2 2 2 3 4 5 6 7 7 7 9 9
4 5 8 11 10 6 5 4 5 6 6 5 5 6 5 4 4 4 4 5 5 5 5 5 7 6 5 4 4 3 2 1 1 1 2 2 2 2 2 2 3 3 5 6 7 8 8 9 10
4 5 7 10 9 8 5 4 5 6 6 5 4 5 5 5 3 4 4 4 5 5 5 5 4 5 5 5 3 3 2 1 2 2 3 3 4 4 4 4 4 4 5 5 7 7 8 9 10
2 4 6 7 9 7 5 4 3 4 4 3 2 4 5 5 3 4 4 4 5 5 4 4 4 3 3 3 3 3 2 2 2 2 3 3 4 5 5 6 5 5 5 6 6 8 8 9 10
3 5 7 7 8 6 6 5 2 1 4 3 1 1 4 6 5 4 4 4 4 4 4 4 4 4 3 3 2 2 2 2 2 3 3 4 5 6 6 6 5 6 6 6 7 8 9 9 10
3 6 5 2 2 5 6 4 4 5 5 3 4 4 5 6 5 4 3 2 3 4 4 4 4 4 4 3 2 2 2 2 3 3 3 4 5 5 6 6 7 7 8 8 8 9 10 11 10
2 4 4 2 2 3 5 4 3 6 4 4 4 6 6 5 4 3 2 2 2 3 4 4 4 4 4 3 3 3 3 3 3 3 4 4 5 4 5 5 6 7 8 8 8 9 9 10 9
3 2 2 2 1 2 3 3 2 2 2 2 3 5 5 5 3 2 1 1 2 3 4 5 5 4 4 4 3 3 3 3 3 4 4 4 3 4 4 4 6 6 6 7 7 7 8 9 10
4 3 2 2 3 3 3 3 2 2 2 4 4 4 4 3 2 1 1 1 2 3 4 5 5 4 4 4 3 3 3 3 4 4 4 5 4 4 4 5 5 6 6 6 7 7 8 8 9
5 5 4 2 2 1 3 2 2 3 4 5 4 4 4 3 2 1 0 1 2 3 4 4 4 4 4 4 4 3 4 4 4 4 5 5 5 5 5 5 5 5 6 6 7 8 8 7 7
6 6 4 1 1 2 2 2 4 4 5 5 4 3 3 2 2 1 0 1 2 3 4 5 5 5 4 4 4 4 4 4 4 4 5 5 5 5 5 5 5 5 6 7 7 8 7 7 7
4 5 3 1 0 1 4 5 4 4 5 5 4 3 3 2 1 0 1 1 2 3 4 4 4 5 5 4 4 3 4 4 4 4 5 5 6 6 5 5 5 5 6 6 6 6 6 7 7
4 5 4 2 1 1 4 5 4 4 5 5 5 5 4 3 2 1 1 1 2 3 3 4 4 5 5 4 4 4 4 4 4 4 5 5 6 6 5 4 5 5 5 5 5 6 6 7 7
5 5 3 2 1 2 5 6 4 5 6 7 6 6 5 4 4 2 1 1 1 2 3 4 4 4 5 4 3 3 3 3 4 4 5 6 6 6 5 4 5 5 5 5 5 6 6 6 6
5 4 3 1 1 2 5 8 7 6 7 8 7 7 6 5 4 2 2 1 1 2 3 4 4 5 4 3 3 3 4 4 4 4 5 6 6 6 5 4 5 5 5 5 6 6 6 6 5
4 4 2 1 1 2 4 9 8 7 7 7 7 7 6 5 4 3 2 1 1 2 3 4 4 4 4 4 4 3 4 4 4 4 5 6 6 6 5 5 5 5 5 6 5 5 5 5 5
2 2 2 0 2 1 4 5 5 4 4 5 6 6 6 6 6 4 3 2 2 2 3 3 4 4 4 4 3 3 3 3 3 4 4 5 6 6 5 5 5 5 5 5 5 5 6 6 6
1 1 2 1 2 1 2 3 4 4 5 6 6 6 6 5 5 5 4 3 2 2 2 3 3 4 4 4 4 4 4 4 5 5 5 5 6 6 6 5 5 5 5 5 5 5 6 6 6
2 1 2 1 1 2 2 4 5 3 6 7 6 5 5 5 5 5 4 3 3 2 2 2 3 4 4 4 4 4 4 4 4 5 5 5 5 6 6 5 5 5 5 5 6 5 6 6 6
3 2 2 1 1 3 3 5 5 4 6 5 4 4 5 5 5 5 3 3 2 2 2 2 3 4 4 4 4 4 4 5 5 6 5 5 4 5 6 6 5 5 5 5 6 6 6 6 7
2 1 1 2 3 3 2 5 7 3 4 5 5 5 4 5 5 5 4 4 3 3 2 2 3 3 4 4 4 4 4 5 5 5 5 5 5 5 6 6 5 5 5 6 6 5 5 6 7
2 2 2 2 3 2 3 6 4 1 2 4 5 5 4 5 4 5 5 5 4 4 3 3 3 3 3 4 4 4 4 4 4 5 5 5 5 5 6 6 6 6 6 6 5 5 5 5 6
2 2 1 1 1 4 5 5 6 3 3 3 4 4 4 4 4 5 5 5 5 4 4 4 4 4 3 4 4 4 4 4 5 5 5 5 5 5 6 6 6 6 6 6 6 5 5 5 6
1 2 2 2 2 4 4 5 4 4 4 3 3 3 3 3 4 5 5 5 5 5 4 4 3 4 3 3 4 4 5 5 5 5 6 6 6 6 6 6 6 6 5 5 5 5 5 6 6
3 3 3 2 3 3 4 3 1 3 3 4 4 4 3 4 5 5 5 5 5 4 4 4 3 3 3 3 4 4 4 5 5 5 6 6 6 6 6 6 6 6 5 5 5 5 5 6 6
4 4 5 3 3 4 5 5 1 3 3 5 5 4 4 5 5 5 5 5 5 5 5 4 4 4 4 3 4 4 4 4 5 5 6 6 6 6 6 6 6 6 5 5 5 5 6 7 7
Wind_Direction
285 205 195 191 193 211 222 206 196 177 181 173 158 171 172 154 142 113 97 88 91 108 109 112 100 99 98 95 93 95 98 108 125 134 141 146 155 159 160 158 153 149 150 153 153 150 146 143 141
228 186 186 197 211 211 214 202 191 183 156 144 139 152 143 115 77 97 106 73 90 101 107 102 96 98 101 101 98 93 92 103 121 128 136 149 154 161 168 169 166 158 152 155 158 158 151 149 150
179 203 191 191 214 219 201 184 183 160 149 160 147 124 120 116 107 103 83 92 105 99 100 96 94 94 95 97 99 103 102 100 110 127 131 138 151 167 173 175 174 172 166 164 164 166 162 160 161
185 177 190 210 212 218 207 160 163 159 163 163 156 130 111 71 81 88 94 108 107 96 91 90 85 91 89 87 88 94 104 113 124 132 149 154 156 157 169 181 182 184 184 182 178 176 176 176 175
202 191 189 205 212 200 186 159 166 170 165 161 163 140 124 92 83 94 103 107 102 92 82 86 77 80 79 81 78 76 73 67 103 217 222 206 194 193 205 193 195 199 196 195 196 192 188 188 188
183 200 202 204 197 186 181 174 173 169 155 153 160 146 126 111 102 96 103 105 98 86 74 79 71 71 69 67 68 64 49 23 329 281 265 252 245 230 225 220 211 209 211 208 206 204 198 195 198
204 197 207 200 189 187 177 177 183 170 161 151 160 151 138 133 97 97 101 96 87 77 68 67 66 65 63 54 51 43 26 352 326 297 276 268 258 246 235 226 223 222 221 220 216 213 208 205 204
225 185 188 194 189 188 166 165 167 179 146 122 176 169 152 142 123 112 102 91 76 65 55 50 48 41 38 37 45 27 3 332 315 295 280 269 255 243 235 229 224 230 229 225 224 222 218 214 210
224 205 199 192 189 169 160 163 135 111 135 133 125 94 105 125 135 127 109 89 69 52 39 31 28 24 17 6 10 0 349 334 300 273 266 259 253 247 239 241 235 234 232 229 228 226 223 218 214
207 205 202 182 171 158 160 162 152 161 159 157 146 116 122 137 141 136 121 88 54 32 21 18 13 7 358 349 341 333 324 316 301 296 281 265 261 255 255 244 233 234 232 229 228 229 221 221 221
175 188 165 145 116 149 156 150 163 175 187 190 173 151 146 151 148 142 117 80 43 20 12 5 1 355 350 346 333 324 318 313 305 303 293 281 271 262 256 252 237 234 233 234 229 227 228 228 228
140 112 146 153 133 155 160 154 152 192 170 129 151 151 155 160 158 153 118 55 24 14 4 359 357 350 346 340 334 319 313 312 310 304 297 285 276 268 265 257 252 247 241 240 237 236 235 236 232
141 130 90 94 108 121 135 151 154 177 154 133 135 148 162 167 170 162 97 36 8 360 353 352 353 349 346 342 334 327 318 310 307 306 298 290 277 270 267 264 260 255 251 245 244 243 243 242 238
131 121 117 92 126 139 148 169 191 194 155 152 151 161 169 172 189 182 112 5 355 349 347 345 347 347 341 336 331 327 324 318 312 308 302 295 285 278 274 268 265 264 259 257 253 249 247 245 244
132 130 118 85 149 165 181 212 209 187 168 169 173 178 176 173 179 190 244 346 348 349 348 347 345 346 342 337 333 330 325 319 315 313 307 301 291 282 276 273 269 269 266 262 259 254 251 249 247
145 162 164 111 229 203 215 221 171 164 178 192 198 200 197 189 195 234 332 341 347 350 352 351 349 348 345 340 333 330 326 322 318 315 308 304 297 288 282 276 272 274 268 266 262 258 251 249 248
167 179 179 155 154 202 214 232 190 181 202 220 222 220 221 223 233 256 299 327 351 357 356 354 352 348 345 339 332 328 325 325 323 320 321 317 308 301 294 284 281 277 269 265 264 261 259 258 255
169 167 169 179 125 216 224 237 230 223 226 234 236 231 231 237 243 252 267 303 351 355 353 349 347 347 343 340 335 332 330 330 329 327 327 323 319 314 305 292 287 282 270 266 264 264 261 264 263
140 150 156 164 341 260 240 251 254 245 232 233 235 234 236 240 246 246 241 253 320 342 346 345 344 347 348 343 336 330 327 325 325 328 326 322 319 315 306 295 290 283 271 267 266 267 265 264 270
134 143 135 62 17 288 274 271 262 246 240 239 237 235 235 238 232 226 229 249 289 321 337 338 338 337 339 332 322 310 311 313 316 319 324 323 320 313 306 296 287 280 273 268 267 267 266 264 257
120 164 163 202 332 242 297 272 229 219 226 235 235 237 240 238 237 230 230 252 279 309 323 329 332 329 330 328 318 313 308 301 302 313 320 327 324 316 309 301 292 286 277 271 269 263 259 261 260
145 146 162 194 257 265 301 272 238 222 232 230 228 227 234 234 234 232 231 243 267 287 304 315 322 326 329 327 317 313 305 305 308 313 313 321 326 324 314 304 297 290 282 273 270 265 262 257 256
114 125 162 205 245 268 224 247 253 205 234 232 225 227 231 229 229 229 230 238 253 272 287 301 314 321 328 328 322 313 307 307 309 307 308 316 323 325 323 312 302 292 285 279 273 268 260 254 251
136 132 124 151 223 248 219 233 255 214 226 227 221 225 228 226 224 225 226 233 241 259 274 289 303 315 325 327 324 317 310 308 308 308 309 312 314 319 324 321 309 299 291 283 277 270 263 258 254
185 197 203 211 224 240 172 238 254 245 225 233 240 242 239 226 221 220 224 231 238 249 266 280 291 303 317 321 322 318 311 307 304 306 307 308 308 311 316 316 310 303 296 287 279 271 266 261 257
186 241 259 256 254 270 210 241 255 241 252 254 254 255 248 233 227 229 233 237 240 247 257 270 282 291 304 311 315 315 313 307 304 305 304 304 303 304 308 308 304 300 293 286 277 269 265 262 259
177 185 343 290 293 268 247 261 275 214 228 234 240 238 238 232 233 240 241 240 242 245 252 263 274 282 291 301 307 308 310 305 305 305 303 300 299 301 305 304 303 301 296 287 280 269 266 264 262
310 162 184 213 254 268 266 256 245 209 218 233 241 243 244 245 248 251 247 244 244 245 248 251 259 271 283 296 301 302 304 304 303 304 304 304 304 301 300 301 299 297 294 289 280 274 265 264 264
174 186 213 225 260 269 280 265 207 221 233 254 264 266 263 264 259 255 254 253 251 248 246 246 252 265 276 287 295 299 302 304 305 302 302 303 303 301 300 300 297 296 294 286 278 275 271 265 264
234 222 205 232 238 240 272 275 123 233 266 273 276 276 273 269 261 257 255 254 249 244 241 242 245 253 264 274 282 291 298 302 303 305 306 305 303 301 303 301 295 293 290 285 279 277 273 266 264
Height
1511 1513 1517 1521 1521 1516 1510 1509 1511 1515 1517 1519 1520 1519 1518 1519 1521 1529 1531 1529 1530 1532 1533 1534 1535 1536 1537 1537 1538 1539 1540 1541 1541 1541 1542 1542 1542 1543 1543 1543 1543 1543 1544 1544 1544 1544 1544 1544 1544
1512 1514 1519 1520 1513 1509 1507 1507 1512 1514 1517 1520 1521 1521 1521 1524 1526 1528 1529 1529 1530 1532 1533 1534 1535 1536 1537 1537 1538 1539 1540 1540 1541 1541 1542 1542 1542 1542 1543 1543 1543 1543 1543 1544 1544 1544 1544 1544 1544
1512 1514 1518 1514 1508 1502 1503 1508 1511 1516 1519 1520 1521 1522 1523 1525 1527 1528 1528 1529 1531 1532 1533 1534 1535 1536 1537 1537 1538 1539 1539 1540 1540 1540 1541 1541 1541 1542 1542 1542 1542 1543 1543 1543 1543 1543 1544 1544 1544
1513 1516 1516 1512 1506 1506 1506 1510 1513 1516 1519 1520 1520 1523 1525 1527 1527 1528 1528 1529 1531 1532 1533 1534 1535 1535 1536 1537 1537 1538 1538 1539 1539 1539 1540 1540 1541 1541 1541 1541 1542 1542 1542 1542 1543 1543 1543 1543 1543
1512 1513 1510 1508 1506 1509 1512 1514 1515 1514 1516 1519 1520 1521 1525 1526 1526 1527 1528 1530 1531 1532 1532 1533 1534 1535 1535 1536 1536 1537 1537 1537 1538 1538 1538 1539 1539 1539 1540 1540 1540 1541 1541 1541 1541 1542 1542 1542 1543
1512 1509 1505 1503 1505 1511 1514 1516 1516 1515 1517 1520 1521 1522 1525 1526 1526 1527 1528 1530 1531 1531 1532 1533 1533 1534 1534 1535 1535 1535 1535 1536 1536 1536 1537 1537 1537 1538 1538 1538 1539 1539 1539 1540 1540 1540 1541 1541 1541
1510 1506 1501 1500 1505 1510 1514 1516 1516 1516 1517 1520 1521 1522 1525 1526 1526 1527 1528 1529 1530 1531 1531 1532 1532 1533 1533 1533 1533 1533 1533 1534 1534 1534 1534 1534 1535 1535 1536 1536 1537 1537 1537 1538 1538 1538 1539 1539 1540
1508 1507 1505 1504 1505 1508 1514 1516 1517 1517 1518 1521 1522 1522 1524 1526 1525 1527 1528 1528 1529 1530 1530 1530 1531 1531 1531 1531 1531 1531 1531 1531 1531 1532 1532 1532 1532 1533 1533 1534 1534 1534 1535 1535 1536 1536 1537 1537 1538
1508 1507 1503 1504 1505 1509 1514 1516 1518 1519 1520 1521 1522 1523 1524 1524 1525 1527 1527 1528 1528 1529 1529 1529 1529 1529 1529 1529 1529 1529 1529 1529 1529 1529 1529 1529 1529 1530 1530 1530 1531 1532 1532 1533 1533 1534 1534 1535 1535
1508 1504 1505 1509 1509 1510 1514 1515 1517 1519 1519 1521 1522 1522 1523 1524 1525 1526 1527 1527 1527 1527 1527 1527 1527 1527 1527 1526 1526 1526 1526 1526 1526 1526 1526 1526 1526 1526 1526 1527 1527 1528 1529 1529 1530 1530 1531 1532 1532
1508 1506 1510 1512 1513 1513 1514 1516 1517 1517 1518 1520 1521 1522 1522 1523 1524 1525 1525 1526 1526 1526 1526 1525 1525 1524 1524 1524 1524 1523 1523 1523 1523 1523 1523 1523 1523 1523 1523 1523 1523 1524 1525 1525 1526 1527 1527 1528 1528
1509 1511 1512 1513 1514 1515 1515 1516 1517 1518 1519 1520 1521 1521 1522 1523 1523 1524 1524 1524 1524 1524 1524 1524 1523 1522 1522 1521 1521 1521 1520 1520 1520 1520 1520 1519 1519 1519 1519 1520 1520 1520 1520 1521 1521 1522 1523 1524 1524
1509 1513 1514 1514 1515 1516 1516 1516 1517 1518 1519 1519 1520 1521 1522 1522 1523 1523 1523 1523 1523 1522 1522 1521 1521 1520 1519 1519 1518 1518 1517 1517 1517 1516 1516 1516 1516 1516 1516 1516 1516 1516 1516 1517 1517 1518 1519 1519 1520
1511 1513 1514 1515 1515 1516 1516 1517 1518 1518 1518 1519 1520 1521 1521 1521 1521 1522 1522 1521 1521 1521 1520 1519 1519 1518 1517 1516 1516 1515 1514 1514 1513 1513 1513 1513 1512 1512 1512 1512 1512 1512 1512 1513 1513 1513 1514 1514 1515
1512 1513 1514 1515 1515 1516 1516 1515 1516 1517 1518 1518 1519 1520 1520 1520 1520 1520 1520 1520 1519 1519 1518 1517 1517 1516 1515 1514 1513 1512 1511 1511 1510 1510 1509 1509 1509 1508 1508 1508 1508 1508 1508 1508 1508 1509 1509 1509 1510
1512 1511 1511 1515 1515 1516 1517 1511 1515 1516 1517 1517 1518 1519 1519 1519 1519 1519 1519 1518 1518 1517 1516 1516 1514 1513 1512 1511 1510 1509 1508 1507 1507 1506 1506 1505 1505 1505 1504 1504 1504 1504 1504 1504 1504 1504 1504 1504 1505
1509 1508 1508 1513 1516 1515 1514 1511 1514 1515 1516 1516 1516 1517 1517 1517 1517 1517 1517 1517 1516 1515 1514 1513 1512 1511 1510 1509 1508 1506 1505 1504 1504 1503 1502 1502 1501 1501 1500 1500 1499 1499 1499 1499 1499 1500 1500 1500 1499
1507 1506 1509 1511 1515 1515 1512 1510 1512 1513 1514 1514 1514 1515 1515 1515 1515 1515 1515 1515 1514 1513 1513 1512 1510 1509 1507 1506 1505 1504 1503 1502 1501 1500 1499 1498 1497 1497 1496 1496 1496 1495 1495 1495 1495 1495 1495 1495 1495
1508 1508 1509 1513 1516 1515 1510 1509 1509 1510 1511 1511 1511 1512 1512 1512 1513 1513 1513 1512 1512 1511 1511 1510 1508 1507 1505 1504 1502 1501 1500 1499 1498 1497 1496 1495 1494 1493 1492 1492 1491 1491 1491 1490 1491 1491 1491 1490 1491
1510 1510 1511 1514 1517 1515 1512 1508 1506 1507 1507 1508 1508 1509 1509 1510 1511 1511 1510 1510 1510 1509 1508 1507 1506 1505 1503 1501 1500 1499 1497 1495 1494 1493 1492 1491 1490 1489 1489 1488 1487 1487 1487 1486 1486 1486 1486 1486 1486
1513 1512 1512 1515 1516 1516 1514 1504 1502 1504 1506 1506 1506 1506 1506 1507 1508 1508 1507 1507 1507 1507 1506 1505 1504 1502 1501 1499 1497 1496 1494 1492 1491 1490 1488 1487 1486 1485 1484 1484 1483 1482 1482 1482 1481 1482 1481 1481 1482
1514 1516 1516 1516 1513 1511 1514 1505 1497 1500 1502 1503 1503 1504 1504 1504 1505 1505 1505 1505 1505 1504 1504 1502 1501 1500 1498 1496 1495 1493 1491 1490 1488 1487 1485 1483 1482 1481 1480 1479 1478 1478 1478 1477 1477 1477 1477 1477 1477
1517 1518 1518 1517 1515 1515 1513 1511 1494 1499 1498 1497 1500 1501 1502 1502 1502 1502 1502 1502 1502 1502 1501 1500 1499 1498 1496 1494 1492 1491 1489 1487 1485 1483 1481 1480 1478 1477 1476 1475 1474 1473 1473 1472 1472 1472 1472 1472 1472
1520 1519 1518 1517 1515 1513 1510 1508 1493 1492 1493 1494 1497 1499 1499 1500 1500 1500 1500 1500 1500 1499 1498 1497 1496 1495 1493 1492 1490 1488 1486 1484 1482 1481 1479 1477 1475 1474 1473 1471 1470 1469 1468 1468 1467 1467 1467 1467 1467
1519 1516 1514 1512 1510 1503 1511 1509 1494 1489 1493 1494 1496 1497 1497 1498 1498 1498 1498 1498 1497 1497 1496 1495 1493 1492 1491 1489 1487 1486 1484 1482 1480 1478 1476 1474 1472 1471 1469 1468 1466 1465 1464 1463 1463 1462 1462 1462 1462
1518 1517 1514 1508 1501 1497 1509 1502 1489 1491 1493 1494 1495 1495 1496 1496 1496 1496 1496 1495 1495 1494 1493 1492 1491 1489 1488 1487 1485 1483 1481 1479 1477 1476 1474 1472 1470 1468 1466 1465 1463 1461 1460 1459 1458 1458 1457 1457 1457
1517 1517 1518 1516 1516 1509 1495 1493 1489 1490 1491 1492 1493 1493 1493 1494 1494 1493 1493 1493 1492 1492 1491 1489 1488 1487 1486 1484 1482 1481 1479 1477 1475 1473 1471 1469 1467 1465 1463 1461 1460 1458 1457 1455 1454 1453 1453 1453 1452
1520 1519 1518 1516 1510 1499 1490 1489 1484 1485 1487 1489 1490 1491 1491 1492 1491 1491 1491 1490 1490 1489 1488 1487 1486 1485 1483 1482 1480 1478 1476 1474 1472 1470 1468 1466 1464 1462 1460 1458 1456 1455 1453 1451 1450 1449 1448 1448 1448
1521 1520 1517 1514 1512 1504 1493 1483 1481 1483 1485 1487 1488 1488 1489 1489 1489 1488 1488 1487 1487 1486 1485 1484 1483 1482 1481 1479 1477 1475 1474 1472 1470 1468 1466 1463 1461 1459 1457 1455 1453 1451 1449 1448 1447 1445 1445 1444 1443
1518 1515 1515 1513 1511 1512 1502 1488 1483 1485 1486 1487 1487 1487 1487 1487 1486 1486 1485 1484 1483 1483 1482 1481 1480 1479 1478 1476 1475 1473 1471 1469 1467 1465 1463 1461 1459 1457 1455 1452 1450 1448 1446 1445 1443 1442 1441 1440 1439